EW9960 Weather Reports


Display with metric or nautical units.
time (UTC)temp
F
wind
direction
speed
MPH
gust
MPH
rain 1hr
in
rain 24hr
in
rain mn
in
humidity
%
barometer
mb
20260905234517 91 205 0.0 0.0 0.00 0.00 0.00 57 1012.0
20260905233033 92 205 0.0 0.0 0.00 0.00 0.00 56 1012.1
20260905231513 94 205 0.0 0.0 0.00 0.00 0.00 51 1011.9
20260905230035 95 205 0.0 1.0 0.00 0.00 0.00 48 1011.8
20260905224558 96 217 0.0 1.0 0.00 0.00 0.00 48 1011.7
20260905223032 97 177 0.0 1.0 0.00 0.00 0.00 42 1011.5
20260905221552 100 18 0.0 1.0 0.00 0.00 0.00 37 1011.4
20260905220028 102 289 0.0 3.0 0.00 0.00 0.00 35 1011.5
20260905214544 103 192 0.0 2.0 0.00 0.00 0.00 34 1011.4
20260905213006 102 205 0.0 2.0 0.00 0.00 0.00 37 1011.5
20260905211526 102 205 0.0 4.0 0.00 0.00 0.00 34 1011.7
20260905210106 101 293 0.0 5.0 0.00 0.00 0.00 36 1011.8
20260905204513 101 319 0.0 2.0 0.00 0.00 0.00 36 1012.0
20260905203032 102 208 0.0 3.0 0.00 0.00 0.00 36 1012.1
20260905201550 103 346 0.0 3.0 0.00 0.00 0.00 38 1012.2
20260905200004 102 186 0.0 7.0 0.00 0.00 0.00 37 1012.4
20260905194510 101 279 0.0 4.0 0.00 0.00 0.00 36 1012.5
20260905193037 101 212 0.0 4.0 0.00 0.00 0.00 38 1012.7
20260905191550 101 304 0.0 2.0 0.00 0.00 0.00 41 1012.9
20260905190025 100 179 0.0 4.0 0.00 0.00 0.00 40 1013.2
20260905184551 100 321 0.0 1.0 0.00 0.00 0.00 43 1013.5
20260905183016 99 349 0.0 2.0 0.00 0.00 0.00 44 1013.6
20260905181552 99 63 0.0 4.0 0.00 0.00 0.00 44 1013.7
20260905180018 99 280 0.0 1.0 0.00 0.00 0.00 42 1013.7
20260905174551 100 358 0.0 2.0 0.00 0.00 0.00 41 1013.7
20260905173026 100 19 0.0 2.0 0.00 0.00 0.00 40 1013.7
20260905171554 100 212 0.0 3.0 0.00 0.00 0.00 40 1014.0
20260905170021 99 184 0.0 1.0 0.00 0.00 0.00 43 1014.3
20260905164551 99 184 0.0 1.0 0.00 0.00 0.00 43 1014.5
20260905163013 98 338 0.0 0.0 0.00 0.00 0.00 45 1014.5
20260905161538 97 207 0.0 1.0 0.00 0.00 0.00 47 1014.7
20260905160010 97 205 0.0 3.0 0.00 0.00 0.00 47 1014.8
20260905154517 96 198 0.0 1.0 0.00 0.00 0.00 49 1014.8
20260905153040 95 251 0.0 1.0 0.00 0.00 0.00 51 1014.8
20260905151617 94 211 0.0 1.0 0.00 0.00 0.00 50 1014.8
20260905150020 92 245 0.0 1.0 0.00 0.00 0.00 59 1014.8
20260905144539 89 191 0.0 1.0 0.00 0.00 0.00 62 1014.8
20260905143007 86 164 0.0 2.0 0.00 0.00 0.00 67 1014.9
20260905141516 84 262 0.0 0.0 0.00 0.00 0.00 73 1014.9
20260905140027 82 262 0.0 0.0 0.00 0.00 0.00 74 1015.0
20260905134538 80 261 0.0 1.0 0.00 0.00 0.00 72 1015.2
20260905124527 75 127 0.0 0.0 0.00 0.00 0.00 37 1014.8
20260905123110 75 127 0.0 0.0 0.00 0.00 0.00 23 1014.8
20260905121523 74 127 0.0 0.0 0.00 0.00 0.00 20 1014.6
20260905120047 73 127 0.0 0.0 0.00 0.00 0.00 24 1014.6
20260905114520 73 127 0.0 0.0 0.00 0.00 0.00 26 1014.4
20260905113048 73 127 0.0 0.0 0.00 0.00 0.00 24 1014.4
20260905111523 73 127 0.0 0.0 0.00 0.00 0.00 30 1014.5
20260905110051 73 127 0.0 0.0 0.00 0.00 0.00 31 1014.4
20260905104529 73 127 0.0 0.0 0.00 0.00 0.00 32 1014.3
20260905103002 73 127 0.0 0.0 0.00 0.00 0.00 29 1014.2
20260905101529 73 127 0.0 0.0 0.00 0.00 0.00 31 1014.3
20260905100057 73 127 0.0 0.0 0.00 0.00 0.00 39 1014.2
20260905094523 73 127 0.0 0.0 0.00 0.00 0.00 44 1014.2
20260905093052 73 127 0.0 0.0 0.00 0.00 0.00 41 1014.1
20260905091511 73 127 0.0 0.0 0.00 0.00 0.00 47 1014.1
20260905090039 73 127 0.0 0.0 0.00 0.00 0.00 50 1014.1
20260905084503 73 127 0.0 0.0 0.00 0.00 0.00 51 1014.0
20260905083033 74 127 0.0 0.0 0.00 0.00 0.00 51 1014.1
20260905081555 74 127 0.0 0.0 0.00 0.00 0.00 54 1014.1
20260905080028 74 127 0.0 0.0 0.00 0.00 0.00 53 1014.1
20260905074541 74 127 0.0 0.0 0.00 0.00 0.00 52 1014.1
20260905073013 74 127 0.0 0.0 0.00 0.00 0.00 56 1014.3
20260905071519 74 127 0.0 0.0 0.00 0.00 0.00 54 1014.1
20260905070036 74 127 0.0 0.0 0.00 0.00 0.00 53 1014.2
20260905060009 75 127 0.0 0.0 0.00 0.00 0.00 63 1014.5
20260905054525 75 127 0.0 0.0 0.00 0.00 0.00 67 1014.5
20260905053053 75 127 0.0 0.0 0.00 0.00 0.00 70 1014.5
20260905051506 76 127 0.0 0.0 0.00 0.00 0.00 70 1014.5
20260905050031 76 127 0.0 0.0 0.00 0.00 0.00 73 1014.5
20260905044544 77 127 0.0 0.0 0.00 0.00 0.00 73 1014.4
20260905043017 77 127 0.0 0.0 0.00 0.00 0.00 73 1014.4
20260905041549 77 127 0.0 0.0 0.00 0.00 0.00 74 1014.3
20260905040031 77 127 0.0 0.0 0.00 0.00 0.00 74 1014.4
20260905034554 77 127 0.0 0.0 0.00 0.00 0.00 74 1014.4
20260905033011 77 127 0.0 0.0 0.00 0.00 0.00 74 1014.6
20260905031534 78 127 0.0 0.0 0.00 0.00 0.00 75 1014.7
20260905030029 78 127 0.0 0.0 0.00 0.00 0.00 76 1014.8
20260905024547 79 127 0.0 0.0 0.00 0.00 0.00 76 1014.8
20260905023059 79 127 0.0 0.0 0.00 0.00 0.00 76 1014.6
20260905021526 79 127 0.0 0.0 0.00 0.00 0.00 76 1014.5
20260905020028 79 127 0.0 0.0 0.00 0.00 0.00 75 1014.4
20260905014550 80 127 0.0 0.0 0.00 0.00 0.00 75 1014.2
20260905013018 81 127 0.0 0.0 0.00 0.00 0.00 74 1013.9
20260905011611 82 127 0.0 0.0 0.00 0.00 0.00 73 1013.9
20260905010031 83 127 0.0 0.0 0.00 0.00 0.00 71 1013.7
20260905004503 84 127 0.0 0.0 0.00 0.00 0.00 68 1013.5
20260905003042 85 127 0.0 0.0 0.00 0.00 0.00 65 1013.4
20260905001609 87 127 0.0 0.0 0.00 0.00 0.00 62 1013.5
20260905000030 89 127 0.0 0.0 0.00 0.00 0.00 60 1013.3